| time (UTC) | temp C | wind direction | speed KPH | gust KPH | rain 1hr cm | rain 24hr cm | rain mn cm | humidity % | barometer mb |
| 20260503072449 | 15 | 186 | 0.0 | 0.0 | 0.00 | 0.00 | 0.00 | 64 | 1021.5 |
| 20260503071945 | 16 | 197 | 0.0 | 0.0 | 0.00 | 0.00 | 0.00 | 64 | 1021.7 |
| 20260503071442 | 16 | 196 | 0.0 | 0.0 | 0.00 | 0.00 | 0.00 | 63 | 1021.8 |
| 20260503070938 | 16 | 197 | 1.6 | 1.6 | 0.00 | 0.00 | 0.00 | 62 | 1021.6 |
| 20260503070436 | 16 | 199 | 1.6 | 1.6 | 0.00 | 0.00 | 0.00 | 62 | 1021.7 |
| 20260503054849 | 17 | 183 | 1.6 | 3.2 | 0.00 | 0.00 | 0.00 | 57 | 1021.6 |
| 20260503054345 | 17 | 191 | 1.6 | 3.2 | 0.00 | 0.00 | 0.00 | 57 | 1021.6 |
| 20260503053843 | 17 | 191 | 0.0 | 1.6 | 0.00 | 0.00 | 0.00 | 57 | 1021.7 |
| 20260503053341 | 17 | 196 | 1.6 | 1.6 | 0.00 | 0.00 | 0.00 | 57 | 1021.6 |
| 20260503052837 | 17 | 192 | 1.6 | 1.6 | 0.00 | 0.00 | 0.00 | 57 | 1021.8 |
| 20260503052334 | 17 | 183 | 1.6 | 1.6 | 0.00 | 0.00 | 0.00 | 57 | 1021.4 |
| 20260503051830 | 17 | 195 | 0.0 | 1.6 | 0.00 | 0.00 | 0.00 | 57 | 1021.4 |
| 20260503051327 | 17 | 191 | 1.6 | 1.6 | 0.00 | 0.00 | 0.00 | 56 | 1021.4 |
| 20260503050824 | 17 | 185 | 3.2 | 3.2 | 0.00 | 0.00 | 0.00 | 56 | 1021.4 |
| 20260503050320 | 17 | 191 | 1.6 | 3.2 | 0.00 | 0.00 | 0.00 | 56 | 1021.5 |
| 20260503045818 | 17 | 186 | 1.6 | 1.6 | 0.00 | 0.00 | 0.00 | 56 | 1021.4 |
| 20260503045315 | 17 | 192 | 1.6 | 1.6 | 0.00 | 0.00 | 0.00 | 55 | 1021.6 |
| 20260503044811 | 18 | 193 | 1.6 | 1.6 | 0.00 | 0.00 | 0.00 | 55 | 1021.6 |
| 20260503044308 | 18 | 184 | 1.6 | 1.6 | 0.00 | 0.00 | 0.00 | 54 | 1021.5 |
| 20260503043806 | 18 | 185 | 1.6 | 3.2 | 0.00 | 0.00 | 0.00 | 54 | 1021.5 |
| 20260503043303 | 18 | 193 | 1.6 | 1.6 | 0.00 | 0.00 | 0.00 | 53 | 1021.6 |
| 20260503042758 | 18 | 192 | 1.6 | 1.6 | 0.00 | 0.00 | 0.00 | 52 | 1021.7 |
| 20260503042255 | 18 | 187 | 3.2 | 3.2 | 0.00 | 0.00 | 0.00 | 52 | 1021.5 |
| 20260503041751 | 18 | 191 | 1.6 | 1.6 | 0.00 | 0.00 | 0.00 | 52 | 1021.5 |
| 20260503041249 | 18 | 191 | 1.6 | 1.6 | 0.00 | 0.00 | 0.00 | 51 | 1021.5 |
| 20260503040747 | 18 | 185 | 1.6 | 1.6 | 0.00 | 0.00 | 0.00 | 51 | 1021.4 |
| 20260503040244 | 18 | 187 | 1.6 | 1.6 | 0.00 | 0.00 | 0.00 | 51 | 1021.4 |
| 20260503035740 | 18 | 202 | 1.6 | 1.6 | 0.00 | 0.00 | 0.00 | 52 | 1021.5 |
| 20260503035238 | 18 | 185 | 0.0 | 3.2 | 0.00 | 0.00 | 0.00 | 52 | 1021.3 |
| 20260503034735 | 18 | 197 | 1.6 | 1.6 | 0.00 | 0.00 | 0.00 | 52 | 1021.5 |
| 20260503034232 | 18 | 197 | 1.6 | 1.6 | 0.00 | 0.00 | 0.00 | 52 | 1021.4 |
| 20260503033730 | 18 | 191 | 0.0 | 0.0 | 0.00 | 0.00 | 0.00 | 53 | 1021.5 |
| 20260503033227 | 18 | 197 | 0.0 | 0.0 | 0.00 | 0.00 | 0.00 | 53 | 1021.3 |
| 20260503032725 | 18 | 197 | 0.0 | 0.0 | 0.00 | 0.00 | 0.00 | 53 | 1021.2 |
| 20260503032224 | 19 | 197 | 0.0 | 0.0 | 0.00 | 0.00 | 0.00 | 51 | 1021.0 |
| 20260503031720 | 19 | 198 | 1.6 | 1.6 | 0.00 | 0.00 | 0.00 | 50 | 1021.3 |
| 20260503031218 | 19 | 198 | 1.6 | 3.2 | 0.00 | 0.00 | 0.00 | 50 | 1021.3 |
| 20260503030714 | 19 | 200 | 1.6 | 1.6 | 0.00 | 0.00 | 0.00 | 50 | 1021.2 |
| 20260503030211 | 19 | 202 | 1.6 | 1.6 | 0.00 | 0.00 | 0.00 | 50 | 1021.0 |
| 20260503025708 | 18 | 208 | 1.6 | 1.6 | 0.00 | 0.00 | 0.00 | 51 | 1021.2 |
| 20260503025205 | 19 | 210 | 0.0 | 0.0 | 0.00 | 0.00 | 0.00 | 51 | 1021.0 |
| 20260503024701 | 19 | 211 | 0.0 | 0.0 | 0.00 | 0.00 | 0.00 | 50 | 1021.3 |
| 20260503024159 | 19 | 212 | 0.0 | 1.6 | 0.00 | 0.00 | 0.00 | 50 | 1021.0 |
| 20260503023656 | 19 | 216 | 0.0 | 1.6 | 0.00 | 0.00 | 0.00 | 51 | 1021.1 |
| 20260503023152 | 19 | 216 | 0.0 | 0.0 | 0.00 | 0.00 | 0.00 | 51 | 1021.0 |
| 20260503022649 | 20 | 216 | 0.0 | 0.0 | 0.00 | 0.00 | 0.00 | 49 | 1020.9 |
| 20260503022148 | 20 | 220 | 0.0 | 0.0 | 0.00 | 0.00 | 0.00 | 48 | 1021.0 |
| 20260503021645 | 20 | 220 | 0.0 | 1.6 | 0.00 | 0.00 | 0.00 | 47 | 1021.0 |
| 20260503021142 | 20 | 224 | 0.0 | 0.0 | 0.00 | 0.00 | 0.00 | 47 | 1020.8 |
| 20260503020639 | 20 | 224 | 0.0 | 0.0 | 0.00 | 0.00 | 0.00 | 46 | 1020.7 |
| 20260503020137 | 20 | 225 | 0.0 | 0.0 | 0.00 | 0.00 | 0.00 | 46 | 1020.8 |
| 20260503015633 | 20 | 225 | 1.6 | 1.6 | 0.00 | 0.00 | 0.00 | 48 | 1020.6 |
| 20260503015130 | 20 | 226 | 0.0 | 0.0 | 0.00 | 0.00 | 0.00 | 49 | 1020.7 |
| 20260503014626 | 20 | 226 | 0.0 | 0.0 | 0.00 | 0.00 | 0.00 | 49 | 1020.4 |
| 20260503014124 | 20 | 227 | 0.0 | 0.0 | 0.00 | 0.00 | 0.00 | 48 | 1020.5 |
| 20260503013621 | 20 | 227 | 0.0 | 0.0 | 0.00 | 0.00 | 0.00 | 48 | 1020.6 |
| 20260503013119 | 20 | 227 | 0.0 | 0.0 | 0.00 | 0.00 | 0.00 | 48 | 1020.4 |
| 20260503012616 | 20 | 228 | 0.0 | 0.0 | 0.00 | 0.00 | 0.00 | 45 | 1020.5 |
| 20260503012113 | 21 | 228 | 0.0 | 0.0 | 0.00 | 0.00 | 0.00 | 45 | 1020.5 |
| 20260503011609 | 21 | 228 | 0.0 | 0.0 | 0.00 | 0.00 | 0.00 | 44 | 1020.4 |
| 20260503011107 | 21 | 231 | 0.0 | 0.0 | 0.00 | 0.00 | 0.00 | 43 | 1020.2 |
| 20260503010602 | 22 | 231 | 0.0 | 0.0 | 0.00 | 0.00 | 0.00 | 42 | 1020.5 |
| 20260503010100 | 22 | 232 | 0.0 | 0.0 | 0.00 | 0.00 | 0.00 | 42 | 1020.6 |
| 20260503005557 | 23 | 237 | 0.0 | 0.0 | 0.00 | 0.00 | 0.00 | 40 | 1020.4 |
| 20260503005054 | 23 | 237 | 0.0 | 0.0 | 0.00 | 0.00 | 0.00 | 39 | 1020.3 |
| 20260503004550 | 23 | 239 | 1.6 | 1.6 | 0.00 | 0.00 | 0.00 | 39 | 1020.2 |
| 20260503004049 | 23 | 235 | 0.0 | 0.0 | 0.00 | 0.00 | 0.00 | 39 | 1020.4 |
| 20260503003545 | 23 | 243 | 0.0 | 1.6 | 0.00 | 0.00 | 0.00 | 38 | 1019.9 |
| 20260503003042 | 23 | 258 | 0.0 | 1.6 | 0.00 | 0.00 | 0.00 | 38 | 1020.1 |
| 20260503002539 | 24 | 253 | 1.6 | 1.6 | 0.00 | 0.00 | 0.00 | 38 | 1020.1 |
| 20260503002036 | 24 | 226 | 1.6 | 3.2 | 0.00 | 0.00 | 0.00 | 38 | 1020.1 |
| 20260503001532 | 24 | 259 | 0.0 | 1.6 | 0.00 | 0.00 | 0.00 | 37 | 1019.8 |
| 20260503001030 | 24 | 246 | 3.2 | 4.8 | 0.00 | 0.00 | 0.00 | 36 | 1020.1 |
| 20260503000527 | 24 | 283 | 4.8 | 4.8 | 0.00 | 0.00 | 0.00 | 36 | 1020.1 |
| 20260503000024 | 24 | 299 | 1.6 | 3.2 | 0.00 | 0.00 | 0.00 | 36 | 1020.2 |
| 20260502235520 | 23 | 283 | 6.4 | 9.7 | 0.00 | 0.00 | 0.00 | 36 | 1020.2 |
| 20260502235019 | 25 | 279 | 3.2 | 4.8 | 0.00 | 0.00 | 0.00 | 36 | 1020.3 |
| 20260502234514 | 25 | 322 | 4.8 | 8.0 | 0.00 | 0.00 | 0.00 | 34 | 1020.3 |
| 20260502234013 | 25 | 243 | 1.6 | 1.6 | 0.00 | 0.00 | 0.00 | 35 | 1020.1 |
| 20260502233512 | 25 | 263 | 4.8 | 8.0 | 0.00 | 0.00 | 0.00 | 33 | 1020.2 |
| 20260502233010 | 25 | 244 | 3.2 | 4.8 | 0.00 | 0.00 | 0.00 | 34 | 1020.3 |
| 20260502232506 | 25 | 263 | 3.2 | 3.2 | 0.00 | 0.00 | 0.00 | 34 | 1020.2 |
| 20260502232003 | 25 | 293 | 1.6 | 3.2 | 0.00 | 0.00 | 0.00 | 34 | 1020.1 |
| 20260502231500 | 25 | 266 | 3.2 | 4.8 | 0.00 | 0.00 | 0.00 | 32 | 1020.2 |
| 20260502230958 | 25 | 217 | 0.0 | 1.6 | 0.00 | 0.00 | 0.00 | 34 | 1020.4 |
| 20260502230456 | 25 | 206 | 0.0 | 0.0 | 0.00 | 0.00 | 0.00 | 33 | 1020.2 |
| 20260502225954 | 26 | 332 | 3.2 | 4.8 | 0.00 | 0.00 | 0.00 | 32 | 1020.1 |
| 20260502225449 | 25 | 204 | 0.0 | 0.0 | 0.00 | 0.00 | 0.00 | 32 | 1020.3 |
| 20260502224946 | 25 | 201 | 1.6 | 1.6 | 0.00 | 0.00 | 0.00 | 33 | 1020.2 |
| 20260502224443 | 26 | 225 | 0.0 | 0.0 | 0.00 | 0.00 | 0.00 | 32 | 1020.3 |
| 20260502223939 | 26 | 261 | 1.6 | 1.6 | 0.00 | 0.00 | 0.00 | 34 | 1020.3 |
| 20260502223437 | 26 | 159 | 3.2 | 3.2 | 0.00 | 0.00 | 0.00 | 32 | 1020.4 |
| 20260502222935 | 25 | 72 | 0.0 | 0.0 | 0.00 | 0.00 | 0.00 | 33 | 1020.4 |
| 20260502222432 | 25 | 287 | 1.6 | 4.8 | 0.00 | 0.00 | 0.00 | 34 | 1020.4 |
| 20260502221928 | 26 | 287 | 1.6 | 3.2 | 0.00 | 0.00 | 0.00 | 32 | 1020.4 |
| 20260502221425 | 26 | 311 | 6.4 | 9.7 | 0.00 | 0.00 | 0.00 | 32 | 1020.5 |
| 20260502220922 | 26 | 331 | 4.8 | 9.7 | 0.00 | 0.00 | 0.00 | 32 | 1020.5 |
| 20260502220417 | 26 | 250 | 1.6 | 1.6 | 0.00 | 0.00 | 0.00 | 32 | 1020.5 |
| 20260502215914 | 26 | 304 | 4.8 | 4.8 | 0.00 | 0.00 | 0.00 | 32 | 1020.5 |
| 20260502215412 | 26 | 287 | 4.8 | 4.8 | 0.00 | 0.00 | 0.00 | 30 | 1020.5 |
| 20260502214908 | 26 | 133 | 1.6 | 1.6 | 0.00 | 0.00 | 0.00 | 32 | 1020.4 |
| 20260502214405 | 26 | 234 | 1.6 | 1.6 | 0.00 | 0.00 | 0.00 | 31 | 1020.6 |
| 20260502213903 | 26 | 254 | 4.8 | 8.0 | 0.00 | 0.00 | 0.00 | 32 | 1020.9 |
| 20260502213359 | 26 | 302 | 4.8 | 8.0 | 0.00 | 0.00 | 0.00 | 32 | 1020.7 |
| 20260502212859 | 25 | 259 | 3.2 | 3.2 | 0.00 | 0.00 | 0.00 | 31 | 1020.8 |
| 20260502212356 | 25 | 265 | 3.2 | 3.2 | 0.00 | 0.00 | 0.00 | 32 | 1020.9 |
| 20260502211853 | 26 | 266 | 4.8 | 8.0 | 0.00 | 0.00 | 0.00 | 31 | 1021.0 |
| 20260502211349 | 26 | 260 | 1.6 | 4.8 | 0.00 | 0.00 | 0.00 | 34 | 1020.8 |
| 20260502210847 | 25 | 271 | 3.2 | 3.2 | 0.00 | 0.00 | 0.00 | 32 | 1021.2 |
| 20260502210343 | 25 | 318 | 6.4 | 8.0 | 0.00 | 0.00 | 0.00 | 33 | 1021.0 |
| 20260502205841 | 25 | 258 | 0.0 | 1.6 | 0.00 | 0.00 | 0.00 | 34 | 1021.1 |
| 20260502205337 | 25 | 224 | 1.6 | 3.2 | 0.00 | 0.00 | 0.00 | 32 | 1021.2 |
| 20260502204834 | 25 | 280 | 6.4 | 9.7 | 0.00 | 0.00 | 0.00 | 33 | 1021.5 |
| 20260502204331 | 25 | 263 | 3.2 | 3.2 | 0.00 | 0.00 | 0.00 | 32 | 1021.4 |
| 20260502203828 | 25 | 242 | 0.0 | 0.0 | 0.00 | 0.00 | 0.00 | 35 | 1021.4 |
| 20260502203326 | 25 | 332 | 6.4 | 12.9 | 0.00 | 0.00 | 0.00 | 33 | 1021.3 |
| 20260502202826 | 26 | 302 | 1.6 | 3.2 | 0.00 | 0.00 | 0.00 | 32 | 1021.6 |
| 20260502202324 | 26 | 314 | 3.2 | 3.2 | 0.00 | 0.00 | 0.00 | 34 | 1021.4 |
| 20260502201822 | 25 | 93 | 3.2 | 4.8 | 0.00 | 0.00 | 0.00 | 33 | 1021.6 |
| 20260502201317 | 25 | 4 | 4.8 | 4.8 | 0.00 | 0.00 | 0.00 | 33 | 1021.7 |
| 20260502200814 | 25 | 206 | 0.0 | 1.6 | 0.00 | 0.00 | 0.00 | 34 | 1021.6 |
| 20260502200310 | 25 | 265 | 4.8 | 8.0 | 0.00 | 0.00 | 0.00 | 32 | 1021.8 |
| 20260502195808 | 25 | 356 | 3.2 | 4.8 | 0.00 | 0.00 | 0.00 | 32 | 1022.0 |
| 20260502195305 | 25 | 253 | 3.2 | 4.8 | 0.00 | 0.00 | 0.00 | 34 | 1022.0 |
| 20260502194801 | 25 | 1 | 3.2 | 9.7 | 0.00 | 0.00 | 0.00 | 35 | 1022.0 |
| 20260502194258 | 24 | 329 | 3.2 | 3.2 | 0.00 | 0.00 | 0.00 | 35 | 1022.0 |
| 20260502193754 | 25 | 345 | 4.8 | 4.8 | 0.00 | 0.00 | 0.00 | 32 | 1022.0 |
| 20260502193252 | 25 | 272 | 4.8 | 4.8 | 0.00 | 0.00 | 0.00 | 33 | 1022.0 |
| 20260502192751 | 25 | 311 | 0.0 | 1.6 | 0.00 | 0.00 | 0.00 | 37 | 1022.2 |
| 20260502192249 | 25 | 168 | 0.0 | 1.6 | 0.00 | 0.00 | 0.00 | 37 | 1022.4 |
| 20260502191746 | 25 | 188 | 1.6 | 3.2 | 0.00 | 0.00 | 0.00 | 34 | 1022.5 |
| 20260502191244 | 25 | 314 | 1.6 | 3.2 | 0.00 | 0.00 | 0.00 | 35 | 1022.1 |
| 20260502190741 | 25 | 237 | 3.2 | 4.8 | 0.00 | 0.00 | 0.00 | 35 | 1022.4 |
| 20260502190239 | 24 | 271 | 4.8 | 4.8 | 0.00 | 0.00 | 0.00 | 34 | 1022.4 |
| 20260502185738 | 24 | 316 | 4.8 | 8.0 | 0.00 | 0.00 | 0.00 | 34 | 1022.4 |
| 20260502185235 | 25 | 286 | 4.8 | 8.0 | 0.00 | 0.00 | 0.00 | 35 | 1022.5 |
| 20260502184732 | 24 | 162 | 0.0 | 1.6 | 0.00 | 0.00 | 0.00 | 36 | 1022.6 |
| 20260502184227 | 24 | 96 | 1.6 | 3.2 | 0.00 | 0.00 | 0.00 | 35 | 1022.6 |
| 20260502183724 | 24 | 2 | 6.4 | 9.7 | 0.00 | 0.00 | 0.00 | 34 | 1022.8 |
| 20260502183220 | 24 | 256 | 0.0 | 0.0 | 0.00 | 0.00 | 0.00 | 35 | 1022.6 |
| 20260502182716 | 23 | 353 | 3.2 | 3.2 | 0.00 | 0.00 | 0.00 | 34 | 1022.9 |
| 20260502182211 | 24 | 271 | 1.6 | 3.2 | 0.00 | 0.00 | 0.00 | 32 | 1022.7 |
| 20260502181709 | 23 | 251 | 1.6 | 1.6 | 0.00 | 0.00 | 0.00 | 36 | 1022.8 |
| 20260502181208 | 23 | 190 | 1.6 | 1.6 | 0.00 | 0.00 | 0.00 | 38 | 1023.0 |
| 20260502180704 | 22 | 269 | 3.2 | 3.2 | 0.00 | 0.00 | 0.00 | 36 | 1023.0 |
| 20260502180202 | 23 | 224 | 8.0 | 9.7 | 0.00 | 0.00 | 0.00 | 35 | 1023.1 |
| 20260502170126 | 23 | 97 | 0.0 | 1.6 | 0.00 | 0.00 | 0.00 | 36 | 1023.9 |
| 20260502164113 | 22 | 46 | 0.0 | 1.6 | 0.00 | 0.00 | 0.00 | 39 | 1024.1 |
| 20260502163609 | 22 | 241 | 1.6 | 1.6 | 0.00 | 0.00 | 0.00 | 36 | 1023.7 |
| 20260502163105 | 22 | 65 | 1.6 | 3.2 | 0.00 | 0.00 | 0.00 | 37 | 1023.7 |
| 20260502162602 | 21 | 169 | 0.0 | 0.0 | 0.00 | 0.00 | 0.00 | 40 | 1023.8 |
| 20260502162059 | 21 | 316 | 3.2 | 3.2 | 0.00 | 0.00 | 0.00 | 41 | 1024.0 |
| 20260502161556 | 21 | 329 | 3.2 | 3.2 | 0.00 | 0.00 | 0.00 | 41 | 1023.8 |
| 20260502161054 | 21 | 315 | 3.2 | 4.8 | 0.00 | 0.00 | 0.00 | 41 | 1023.7 |
| 20260502160552 | 21 | 255 | 1.6 | 1.6 | 0.00 | 0.00 | 0.00 | 42 | 1023.6 |
| 20260502152004 | 20 | 45 | 0.0 | 0.0 | 0.00 | 0.00 | 0.00 | 47 | 1023.5 |
| 20260502151501 | 19 | 346 | 1.6 | 1.6 | 0.00 | 0.00 | 0.00 | 47 | 1023.6 |
| 20260502150958 | 19 | 334 | 1.6 | 3.2 | 0.00 | 0.00 | 0.00 | 46 | 1023.7 |
| 20260502150455 | 19 | 295 | 3.2 | 3.2 | 0.00 | 0.00 | 0.00 | 48 | 1023.4 |
| 20260502130341 | 12 | 258 | 3.2 | 3.2 | 0.00 | 0.00 | 0.00 | 90 | 1022.7 |
| 20260502123323 | 11 | 250 | 0.0 | 0.0 | 0.00 | 0.00 | 0.00 | 96 | 1022.2 |
| 20260502122821 | 10 | 250 | 0.0 | 0.0 | 0.00 | 0.00 | 0.00 | 96 | 1022.3 |
| 20260502122316 | 10 | 249 | 0.0 | 0.0 | 0.00 | 0.00 | 0.00 | 96 | 1022.2 |
| 20260502121815 | 10 | 249 | 0.0 | 0.0 | 0.00 | 0.00 | 0.00 | 96 | 1022.0 |
| 20260502121312 | 10 | 249 | 0.0 | 0.0 | 0.00 | 0.00 | 0.00 | 96 | 1021.7 |
| 20260502120809 | 10 | 249 | 0.0 | 0.0 | 0.00 | 0.00 | 0.00 | 95 | 1021.6 |
| 20260502120305 | 10 | 249 | 0.0 | 0.0 | 0.00 | 0.00 | 0.00 | 95 | 1021.6 |
| 20260502115803 | 10 | 249 | 0.0 | 0.0 | 0.00 | 0.00 | 0.00 | 95 | 1021.7 |
| 20260502115300 | 10 | 249 | 0.0 | 0.0 | 0.00 | 0.00 | 0.00 | 95 | 1021.7 |
| 20260502114756 | 10 | 249 | 0.0 | 0.0 | 0.00 | 0.00 | 0.00 | 94 | 1021.5 |
| 20260502114253 | 10 | 249 | 0.0 | 0.0 | 0.00 | 0.00 | 0.00 | 94 | 1021.3 |
| 20260502113750 | 10 | 249 | 0.0 | 0.0 | 0.00 | 0.00 | 0.00 | 93 | 1021.3 |
| 20260502113248 | 10 | 249 | 0.0 | 0.0 | 0.00 | 0.00 | 0.00 | 93 | 1021.3 |
| 20260502112746 | 10 | 249 | 0.0 | 0.0 | 0.00 | 0.00 | 0.00 | 93 | 1021.3 |
| 20260502112243 | 10 | 249 | 0.0 | 0.0 | 0.00 | 0.00 | 0.00 | 93 | 1021.2 |
| 20260502111740 | 10 | 249 | 0.0 | 0.0 | 0.00 | 0.00 | 0.00 | 93 | 1021.2 |
| 20260502111237 | 10 | 249 | 0.0 | 0.0 | 0.00 | 0.00 | 0.00 | 93 | 1021.1 |
| 20260502110735 | 10 | 249 | 1.6 | 1.6 | 0.00 | 0.00 | 0.00 | 94 | 1021.1 |
| 20260502110232 | 10 | 249 | 0.0 | 1.6 | 0.00 | 0.00 | 0.00 | 94 | 1021.1 |
| 20260502105730 | 10 | 249 | 0.0 | 1.6 | 0.00 | 0.00 | 0.00 | 94 | 1021.2 |
| 20260502105226 | 10 | 249 | 0.0 | 0.0 | 0.00 | 0.00 | 0.00 | 94 | 1021.2 |
| 20260502104724 | 10 | 249 | 0.0 | 0.0 | 0.00 | 0.00 | 0.00 | 93 | 1021.2 |
| 20260502104222 | 10 | 249 | 0.0 | 0.0 | 0.00 | 0.00 | 0.00 | 93 | 1021.0 |
| 20260502103719 | 10 | 249 | 0.0 | 0.0 | 0.00 | 0.00 | 0.00 | 93 | 1021.0 |
| 20260502103217 | 10 | 249 | 0.0 | 0.0 | 0.00 | 0.00 | 0.00 | 92 | 1020.8 |
| 20260502102713 | 10 | 249 | 0.0 | 0.0 | 0.00 | 0.00 | 0.00 | 92 | 1020.6 |
| 20260502102210 | 10 | 249 | 0.0 | 0.0 | 0.00 | 0.00 | 0.00 | 92 | 1020.7 |
| 20260502101708 | 10 | 249 | 0.0 | 0.0 | 0.00 | 0.00 | 0.00 | 91 | 1020.6 |
| 20260502101206 | 10 | 249 | 0.0 | 0.0 | 0.00 | 0.00 | 0.00 | 91 | 1020.6 |
| 20260502100704 | 10 | 249 | 0.0 | 0.0 | 0.00 | 0.00 | 0.00 | 90 | 1020.7 |
| 20260502100202 | 11 | 249 | 0.0 | 0.0 | 0.00 | 0.00 | 0.00 | 90 | 1020.8 |
| 20260502091136 | 11 | 247 | 0.0 | 0.0 | 0.00 | 0.00 | 0.00 | 90 | 1020.7 |
| 20260502090633 | 11 | 247 | 0.0 | 1.6 | 0.00 | 0.00 | 0.00 | 90 | 1020.7 |
| 20260502090130 | 11 | 249 | 0.0 | 1.6 | 0.00 | 0.00 | 0.00 | 90 | 1020.5 |